Regional Weather Roundup
Issued by NWS

Home | Current Version | Previous Version | Text Only | Print | Product List | Glossary Off
Versions: 1 2 3 4 5 6 7 8 9 10 11 12 13 14 15 16 17 18 19 20 21 22 23 24 25 26 27 28 29 30 31 32 33 34 35 36 37 38 39 40 41 42 43 44 45 46 47 48 49 50

756
ASUS43 KLOT 010609
RWRIL

ILLINOIS REGIONAL WEATHER ROUNDUP
NATIONAL WEATHER SERVICE CHICAGO/ROMEOVILLE IL
100 AM CDT WED JUN 01 2016

NOTE: "FAIR" INDICATES FEW OR NO CLOUDS BELOW 12,000 FEET WITH NO
SIGNIFICANT WEATHER AND/OR OBSTRUCTIONS TO VISIBILITY.

* THESE STATIONS ARE NOT UNDER NWS QUALITY CONTROL. THEY ALSO MAY NOT
  REPORT WEATHER SUCH AS PRECIPITATION OR FOG.

ILZ001-002-007-009-015-016-024-010700-
NORTHWEST ILLINOIS

CITY           SKY/WX    TMP DP  RH WIND       PRES   REMARKS
MOLINE         TSTM      66  62  87 E8        29.94S FOG
6HR MIN TEMP:  66; 6HR MAX TEMP:  73; 6HR PCP:  0.16;

STERLING*      CLOUDY    68  62  81 VRB3      29.93S
SAVANNA*       CLOUDY    67  64  93 W10       29.96R
$$

ILZ003-004-008-010-011-017-018-010700-
NORTH CENTRAL ILLINOIS

CITY           SKY/WX    TMP DP  RH WIND       PRES   REMARKS
ROCKFORD       CLOUDY    67  61  81 S7        29.95F
6HR MIN TEMP:  65; 6HR MAX TEMP:  67; 6HR PCP: TRACE;

FREEPORT*      CLOUDY    64  61  91 CALM      29.94S
ROCHELLE*      CLOUDY    66  61  85 SE12      29.94S
DE KALB*       CLOUDY    65  62  89 SE10      29.96S
$$

ILZ005-006-012>014-019>023-010700-
NORTHEAST ILLINOIS

CITY           SKY/WX    TMP DP  RH WIND       PRES   REMARKS
CHICAGO-OHARE  CLOUDY    64  59  83 CALM      29.95F
6HR MIN TEMP:  64; 6HR MAX TEMP:  67;

CHICAGO-MIDWAY CLOUDY    66  59  78 E7        29.95F
6HR MIN TEMP:  65; 6HR MAX TEMP:  70; 6HR PCP: TRACE;

AURORA         LGT RAIN  66  63  90 SE13      29.96F FOG
6HR MIN TEMP:  66; 6HR MAX TEMP:  68; 6HR PCP:  0.04;

LANSING*       LGT RAIN  64  60  86 SE3       29.96F
JOLIET*        CLOUDY    68  63  82 CALM      29.97R
WAUKEGAN       CLOUDY    60  57  89 SE8       29.96F
6HR MIN TEMP:  60; 6HR MAX TEMP:  65; 6HR PCP: TRACE;

DUPAGE AIRPORT LGT RAIN  64  60  87 E7        29.96S
6HR MIN TEMP:  64; 6HR MAX TEMP:  67; 6HR PCP:  0.04;

KANKAKEE*      CLOUDY    66  61  85 E5        29.95F
WHEELING       CLOUDY    63  58  83 CALM      29.97F
6HR MIN TEMP:  62; 6HR MAX TEMP:  66; 6HR PCP:  0.01;

MORRIS*        LGT RAIN  67  62  84 E10       29.94F
ROMEOVILLE*    CLOUDY    65  60  83 W6        29.97R
NORTHERLY ISL    N/A     62  59  90 N1          N/A
$$

LMZ740>746-010700-
SOUTHERN LAKE MICHIGAN

STATION/POSITION SKY/WX   TEMP    WIND        PRES    VSBY  WAVE
                          AIR SEA DIR/SP/G                  HT/PER
                          (F)     (DEG/KT/KT) (MB)    (MI)  (FT/S)
SOUTHERN BUOY              59 54  110/ 10/ 10 1014.1F         1/ 4
WILMETTE HARBOR            59 58  170/  4/  6   N/A           1/ 2
HARRISON CRIB              63     150/  4/  5   N/A
BURNHAM HARBOR             62      10/  2/  4   N/A
CALUMET HARBOR             62      40/  3/  4 1014.2F
BURNS HARBOR               62      CALM  /  4 1015.2F
MICHIGAN CITY              65     140/  2/  2   N/A
MICHIGAN CITY 6N           63 62  130/  2/  2   N/A           1
ST. JOSEPH                 68 65  110/ 14/ 16   N/A           1
$$

ILZ025>027-034>036-040-047-049-050-058-095>099-010700-
WEST-CENTRAL ILLINOIS

CITY           SKY/WX    TMP DP  RH WIND       PRES   REMARKS
QUINCY         CLOUDY    70  65  84 CALM      29.92R
GALESBURG*     CLOUDY    68  62  79 NW12G17   29.94R
MACOMB*        CLOUDY    71  64  78 SE5       29.94S
JACKSONVILLE*  MOCLDY    71  65  81 SE12      29.93R
PITTSFIELD*    CLOUDY    70  67  92 S3        29.93S
$$

ILZ028>032-037-038-041>044-048-051>054-059>061-010700-
CENTRAL ILLINOIS

CITY           SKY/WX    TMP DP  RH WIND       PRES   REMARKS
PONTIAC        CLOUDY    68  65  90 E7        29.95S
BLOOMINGTON    CLOUDY    67  64  90 E8        29.95F
DECATUR        CLOUDY    67  62  84 E3        29.94F
PEORIA         CLOUDY    69  61  75 CALM      29.93S
6HR MIN TEMP:  69; 6HR MAX TEMP:  77; 6HR PCP:  0.04;

LACON*         CLOUDY    67  60  78 SE6       29.92S
LINCOLN*       CLOUDY    69  64  83 CALM      29.93F
SPRINGFIELD    CLOUDY    68  64  87 SE10      29.94S
6HR MIN TEMP:  68; 6HR MAX TEMP:  77;

TAYLORVILLE    CLOUDY    69  64  84 CALM      29.95R
6HR MIN TEMP:  68; 6HR MAX TEMP:  73;

$$

ILZ033-039-045-046-055>057-062-063-010700-
EAST-CENTRAL ILLINOIS

CITY           SKY/WX    TMP DP  RH WIND       PRES   REMARKS
CHAMPAIGN      PTCLDY    66  63  90 E7        29.94F
RANTOUL*       CLOUDY    69  65  87 CALM      29.94F
MATTOON        MOCLDY    70  61  73 CALM      29.93F
PARIS*         CLOUDY    69  65  87 CALM      29.95F
$$

ILZ079-100>102-010700-
SOUTHWEST ILLINOIS

CITY           SKY/WX    TMP DP  RH WIND       PRES   REMARKS
ALTON          CLOUDY    70  65  82 E5        29.93S
BELLEVILLE     PTCLDY    71  69  92 CALM      29.92S
CAHOKIA*       CLOUDY    72  66  81 SW3       29.93R
SPARTA*        MOCLDY    71  65  81 CALM      29.94F
$$

ILZ064>066-069>071-074>076-080>082-084>086-088>090-092>094-010700-
SOUTH-CENTRAL ILLINOIS

CITY           SKY/WX    TMP DP  RH WIND       PRES   REMARKS
CARBONDALE     MOCLDY    68  66  93 CALM      29.93S
6HR MIN TEMP:  68; 6HR MAX TEMP:  82;

CAIRO*         CLOUDY    73  68  84 E5        29.93S
EFFINGHAM*     RAIN      70  66  89 W10G18    29.97R
MARION         PTCLDY    72  70  94 CALM      29.94S
CENTRALIA*     CLOUDY    72  68  89 CALM      29.92F
SALEM*         CLOUDY    74  67  76 CALM      29.94R
METROPOLIS*    CLOUDY    74  69  86 SW5       29.95R
$$

ILZ067-068-072-073-078-083-087-091-010700-
SOUTHEAST ILLINOIS

CITY           SKY/WX    TMP DP  RH WIND       PRES   REMARKS
LAWRENCEVILLE  CLOUDY    72  65  78 CALM      29.93F
FLORA*         CLOUDY    73  67  83 CALM      29.94S
FAIRFIELD*     CLOUDY    71  67  85 CALM      29.92S
HARRISBURG*    MOCLDY    73  71  93 CALM      29.93F
ROBINSON*      CLOUDY    68  63  83 CALM      29.94F
CARMI*         PTCLDY    72  69  89 CALM      29.92F
$$

ABBREVIATIONS USED IN REMARKS
   TC - TEMPERATURE IN CELSIUS
  WCI - WIND CHILL INDEX
   HX - HEAT INDEX
  VSB - VISIBILITY
$$





USA.gov is the U.S. government's official web portal to all federal, state and local government web resources and services.